Retour au catalogue

SL-8 R/B

ActifPO
NORAD 12836·ROCKET BODY·🇷🇺 Russia

Lancé Sep 18, 1981 depuis Plesetsk Cosmodrome

Loading…

Prochains Passages (prochaines 24 heures)

TLE

FraisSource: Space-Track

Époque: Sep 14, 2026, 12:50 UTC

1 12836U 81091B   26257.53478100 -.00000062  00000-0 -79024-4 0  9995
2 12836  82.9140  82.2370 0024031 111.8284 273.0917 13.76803784643237

Suivez SL-8 R/B en temps réel avec AllMySat

Download on the App Store